Regional Weather Roundup
Issued by NWS Austin/San Antonio, TX

Home | Current Version | Previous Version | Text Only | Print | Product List | Glossary On
Versions: 1 2 3 4 5 6 7 8 9 10 11 12 13 14 15 16 17 18 19 20 21 22 23 24 25 26 27 28 29 30 31 32 33 34 35 36 37 38 39 40 41 42 43 44 45 46 47 48 49 50
000
ASUS44 KEWX 231512
RWREWX
SOUTH TEXAS REGIONAL WEATHER ROUNDUP
NATIONAL WEATHER SERVICE AUSTIN/SAN ANTONIO TX
1000 AM CDT SUN JUL 23 2017

NOTE: "FAIR" INDICATED FEW OR NO CLOUDS BELOW 12,000 FEET WITH NO
SIGNIFICANT WEATHER AND/OR OBSTRUCTIONS TO VISIBILITY.

* - THESE STATIONS ARE NOT NWS OR FAA STATIONS...AND ARE NOT SUBJECT
    TO NWS AND FAA QUALITY CONTROL.

TXZ171-172-183>190-231600-
TEXAS HILL COUNTRY AND EDWARDS PLATEAU

CITY           SKY/WX    TMP DP  RH WIND       PRES   REMARKS
JUNCTION       SUNNY     84  70  62 VRB5      29.99S
*LLANO         MOSUNNY   88  72  58 SW3       29.99S HX  94
BURNET         SUNNY     84  70  62 SW10      29.99S
*HORSESHOE BAY PTSUNNY   87  72  59 SW3       29.96F HX  93
*KERRVILLE     MOSUNNY   82  75  80 S7        30.00R
*FREDERICKSBRG SUNNY     82  68  61 SW9       30.00R
*ROCKSPRINGS   SUNNY     84  70  61 S10       30.05R
*BOERNE STAGE  SUNNY     81  70  69 S8        30.00S
*CASTROVILLE   SUNNY     84  70  61 S9        29.98R
HONDO          SUNNY     84  72  67 VRB3      29.97S
*UVALDE        SUNNY     83  71  68 SE7       29.97R
DEL RIO        SUNNY     85  68  56 SE12      29.94R
LAUGHLIN AFB   MOSUNNY   85  69  58 S10       29.95R
CARRIZO SPRGS  SUNNY     84  70  61 S7        29.92S
*EAGLE PASS    NOT AVBL
$$

TXZ173-191>194-202-209-217>225-228-231600-
CENTRAL AND SOUTH CENTRAL TEXAS

CITY           SKY/WX    TMP DP  RH WIND       PRES   REMARKS
GEORGETOWN     SUNNY     84  73  70 SW14G22   29.95S HX  91
AUSTIN/BERGSTM MOSUNNY   87  73  62 S15G22    29.94S HX  94
AUSTIN/MABRY   SUNNY     88  72  58 VRB6      29.95F HX  94
*AUSTIN/EXEC     N/A     84  73  70 SW12G17   29.95S HX  91
*LAGO VISTA    SUNNY     84  73  67 SW6       29.98S HX  90
SAN MARCOS     MOSUNNY   84  66  54 S17       29.97S
NEW BRAUNFELS  MOSUNNY   86  72  62 SW16G24   29.95R HX  92
RANDOLPH AFB   MOSUNNY   85  74  68 SW14      29.96S HX  92
PT SAN ANTONIO MOSUNNY   85  73  66 S10       29.94F HX  92
SAN ANTONIO    MOSUNNY   84  72  67 S10       29.97S
STINSON FIELD  MOSUNNY   86  72  62 S7        29.94S HX  92
*LA GRANGE     MOSUNNY   87  77  72 S10       29.93S HX  99
*GIDDINGS      SUNNY     85  71  62 SW13G21   29.96S HX  90
*GONZALES      SUNNY     87  75  68 SW10      29.95S HX  96
$$

TXZ163>164-176>182-195>201-210>213-226-227-235-231600-
SOUTHEAST TEXAS

CITY           SKY/WX    TMP DP  RH WIND       PRES   REMARKS
COLLEGE STN    MOSUNNY   87  75  67 SW13      29.95R HX  96
*BRYAN         PTSUNNY   86  74  66 SW13G22   29.96S HX  94
*CALDWELL      NOT AVBL
*CROCKETT      MOSUNNY   82  77  83 SW6       29.98S HX  91
*BRENHAM       PTSUNNY   88  75  67 SW14G21   29.97R HX  97
HUNTSVILLE     PTSUNNY   85  74  69 SW13G21   29.96S HX  92
CONROE         PTSUNNY   85  76  74 SW10G20   29.96S HX  94
HOUSTON BUSH   PTSUNNY   86  77  74 SW9       29.95S HX  97
HOUSTON HOBBY  PTSUNNY   89  76  65 SW13      29.95S HX 100
*HOUSTON SW AP PTSUNNY   84  77  79 SW6       29.97R HX  94
PEARLAND       MOSUNNY   90  76  63 S9        29.97S HX 101
HOUSTON HOOKS  PTSUNNY   85  78  80 SW7       29.96R HX  96
ELLINGTON FLD  PTSUNNY   88  75  66 S10       29.97S HX  97
SUGAR LAND     PTSUNNY   88  78  72 SW13      29.95S HX 101
*HOUSTON EXEC  PTSUNNY   86  77  74 SW14      29.97S HX  97
*CLEVELAND MUN CLOUDY    87  78  75 SW6       29.97S HX  99
*WHARTON       MOSUNNY   88  73  60 S13       29.96S HX  95
*COLUMBUS      PTSUNNY   87  74  65 SW8G18    29.97R HX  95
*EAGLE LAKE    PTSUNNY   87  79  76 SW9G16    29.95S HX 102
$$

TXZ214>216-236>238-231600-
THE UPPER TEXAS COAST

CITY           SKY/WX    TMP DP  RH WIND       PRES   REMARKS
*ORANGE        CLOUDY    83  79  89 SW3       29.98S HX  93
PORT ARTHUR    CLOUDY    82  78  88 W5        29.96R HX  91
GALVESTON      SUNNY     88  78  72 SW16G23   29.97R HX 101
ANGLETON       MOSUNNY   88  77  69 SW10G20   29.96R HX 100
*BAY CITY      PTSUNNY   88  77  69 S14       29.96R HX 100
PALACIOS       PTSUNNY   85  76  74 S12       29.95R HX  94
$$

TXZ229>234-239>247-231600-
TEXAS COASTAL BEND AND RIO GRANDE PLAINS

CITY           SKY/WX    TMP DP  RH WIND       PRES   REMARKS
VICTORIA       PTSUNNY   88  75  65 SW14      29.95S HX  97
*BEEVILLE      PTSUNNY   87  77  71 S15       29.94S HX  98
ROCKPORT       MOSUNNY   88  74  63 S9G23     29.93R HX  96
*PORT ARANSAS  MOSUNNY   86  75  69 S18G26    29.94R HX  94
*PORT LAVACA   PTSUNNY   87  74  64 S15G22    29.95R HX  96
*INGLESIDE     SUNNY     87  75  68 MISG      29.94S HX  97
CORPUS CHRISTI MOSUNNY   87  75  67 S16G26    29.93R HX  96
CORPUS NAS     PTSUNNY   89  77  67 S14G30    29.94R HX 101
*ROBSTOWN      SUNNY     88  73  60 S21       29.94S HX  96
ALICE          CLOUDY    87  75  67 S18       29.92F HX  96
KINGSVILLE NAS PTSUNNY   90  76  63 S21G29    29.93S HX 101
COTULLA        SUNNY     86  69  56 S9        29.93S HX  90
*FAITH RANCH   SUNNY     86  72  62 SE9       29.93S HX  92
LAREDO         MOSUNNY   87  71  58 S15         N/A  HX  93
$$

TXZ248>255-231600-
DEEP SOUTH TEXAS

CITY           SKY/WX    TMP DP  RH WIND       PRES   REMARKS
BROWNSVILLE    MOSUNNY   87  75  67 S16G26    29.95R HX  96
PORT ISABEL    MOSUNNY   88  75  65 S17       29.94R HX  97
*SOUTH PADRE   NOT AVBL
HARLINGEN      MOSUNNY   88  74  63 S17G28    29.93R HX  96
*HEBBRONVILLE  MOSUNNY   82  71  71 S10G20    29.95S
MCALLEN        MOSUNNY   88  74  63 S17G29    29.93R HX  96
*WESLACO       MOSUNNY   89  72  57 S21G26    29.93R HAZE    HX  96
FALFURRIAS     CLOUDY    84  76  77 S13       29.94R HX  93
EDINBURG       PTSUNNY   89  72  55 S18       29.94S HX  96
*ZAPATA        MOSUNNY   87  70  58 SE12      29.92S HX  91
$$

TXZ213>215-236>238-242>244-246-247-251-254-255-231600-
CMAN STATIONS

STATION/POSITION TIME  TEMP    WIND        PRES    WAVE
                       AIR SEA DIR/SP/G            HT/PER
                 (UTC) (F)     (DEG/KT/KT) (MB)    (FT/S)
SABINE PASS      1448   86 88  230/  6/ 12 1016.3
SEA RIM ST PARK  1500   86     230/ 12/ 17 1015.4
NORTH JETTY/GLS  1436      86  210/ 18/ 21 1013.9
EAGLE POINT      1448   86 87  240/ 10/ 13 1014.5
MORGANS POINT    1448   86 88  210/  8/ 12 1014.3
MISSION/ARANSAS  1400          190/ 16     1014.0
PORT O`CONNOR    1448   85     190/ 18/ 22 1013.5
PORT ARANSAS     1500   84 85  180/ 21/ 23 1013.8
MALAQUITE BEACH  1448   84 85  160/ 24/ 26 1013.0
BAFFIN BAY       1448   84 83              1014.0
PORT ISABEL      1448   85 85              1014.0
$$



USA.gov is the U.S. government's official web portal to all federal, state and local government web resources and services.